Location: Fort Worth, Tx
(32.7431°N, 97.3695°W)
Time: 20:32:01
(UTC-04:00)

Vanguard 1 Rocket - Pass Details

Date: 13 September 2024
Orbit: 650 x 4218 km, 34.3° (Epoch: 11 October)

Event Time Altitude Azimuth Distance (km) Brightness Sun altitude
Exits shadow 06:11:17 34° 232° (SW) 3,645 9.9 -25.5°
Maximum altitude 06:20:26 76° 154° (SSE) 3,306 10.1 -23.7°
Drops below altitude 10° 06:45:36 10° 75° (ENE) 7,413 13.3 -18.7°
Sets 06:51:35 0° 74° (ENE) 8,452 14.1 -17.5°
